Time,TemperatureF,DewpointF,PressureIn,WindDirection,WindDirectionDegrees,WindSpeedMPH,WindSpeedGustMPH,Humidity,HourlyPrecipIn,Conditions,Clouds,dailyrainin,SolarRadiationWatts/m^2,SoftwareType,DateUTC
2013-01-30 00:04:00,74.0,66.0,-100.00,ESE,121,6.0,13.0,76,0.00,,,0.00,0.000000,,2013-01-30 05:04:00,
2013-01-30 00:12:00,74.0,66.0,-100.00,ESE,121,6.0,13.0,76,0.00,,,0.00,0.000000,,2013-01-30 05:12:00,
2013-01-30 00:22:00,74.0,66.0,-100.00,ESE,121,6.0,13.0,76,0.00,,,0.00,0.000000,,2013-01-30 05:22:00,
2013-01-30 00:32:00,74.0,66.0,-100.00,ESE,121,6.0,13.0,76,0.00,,,0.00,0.000000,,2013-01-30 05:32:00,
2013-01-30 00:52:00,74.0,65.0,-100.00,ESE,123,7.0,14.0,74,0.00,,,0.00,0.000000,,2013-01-30 05:52:00,
2013-01-30 01:02:00,74.0,65.0,-100.00,ESE,123,7.0,14.0,74,0.00,,,0.00,0.000000,,2013-01-30 06:02:00,
2013-01-30 01:12:00,74.0,65.0,-100.00,ESE,123,7.0,14.0,74,0.00,,,0.00,0.000000,,2013-01-30 06:12:00,
2013-01-30 01:22:00,74.0,65.0,-100.00,ESE,123,7.0,14.0,74,0.00,,,0.00,0.000000,,2013-01-30 06:22:00,
2013-01-30 01:32:00,74.0,65.0,-100.00,ESE,123,7.0,14.0,74,0.00,,,0.00,0.000000,,2013-01-30 06:32:00,
2013-01-30 02:02:00,74.0,64.0,-100.00,ESE,122,8.0,17.0,72,0.00,,,0.00,0.000000,,2013-01-30 07:02:00,
2013-01-30 02:12:00,74.0,64.0,-100.00,ESE,122,8.0,17.0,72,0.00,,,0.00,0.000000,,2013-01-30 07:12:00,
2013-01-30 02:22:00,74.0,64.0,-100.00,ESE,122,8.0,17.0,72,0.00,,,0.00,0.000000,,2013-01-30 07:22:00,
2013-01-30 02:32:00,74.0,64.0,-100.00,ESE,122,8.0,17.0,72,0.00,,,0.00,0.000000,,2013-01-30 07:32:00,
2013-01-30 03:02:00,73.0,65.0,-100.00,SE,131,6.0,15.0,75,0.00,,,0.00,0.000000,,2013-01-30 08:02:00,
2013-01-30 03:11:00,73.0,65.0,-100.00,SE,131,6.0,15.0,75,0.00,,,0.00,0.000000,,2013-01-30 08:11:00,
2013-01-30 03:22:00,73.0,65.0,-100.00,SE,131,6.0,15.0,75,0.00,,,0.00,0.000000,,2013-01-30 08:22:00,
2013-01-30 03:32:00,73.0,65.0,-100.00,SE,131,6.0,15.0,75,0.00,,,0.00,0.000000,,2013-01-30 08:32:00,
2013-01-30 04:02:00,73.0,64.0,-100.00,SE,137,6.0,14.0,73,0.00,,,0.00,0.000000,,2013-01-30 09:02:00,
2013-01-30 04:12:00,73.0,64.0,-100.00,SE,137,6.0,14.0,73,0.00,,,0.00,0.000000,,2013-01-30 09:12:00,
2013-01-30 04:22:00,73.0,64.0,-100.00,SE,137,6.0,14.0,73,0.00,,,0.00,0.000000,,2013-01-30 09:22:00,
2013-01-30 04:32:00,73.0,64.0,-100.00,SE,137,6.0,14.0,73,0.00,,,0.00,0.000000,,2013-01-30 09:32:00,
2013-01-30 05:02:00,73.0,66.0,-100.00,SE,136,7.0,13.0,79,0.00,,,0.00,0.000000,,2013-01-30 10:02:00,
2013-01-30 05:12:00,73.0,66.0,-100.00,SE,136,7.0,13.0,79,0.00,,,0.00,0.000000,,2013-01-30 10:12:00,
2013-01-30 05:21:00,73.0,66.0,-100.00,SE,136,7.0,13.0,79,0.00,,,0.00,0.000000,,2013-01-30 10:21:00,
2013-01-30 05:32:00,73.0,66.0,-100.00,SE,136,7.0,13.0,79,0.00,,,0.00,0.000000,,2013-01-30 10:32:00,
2013-01-30 06:02:00,73.0,63.0,-100.00,SE,137,6.0,13.0,72,0.00,,,0.00,0.000000,,2013-01-30 11:02:00,
2013-01-30 06:11:00,73.0,63.0,-100.00,SE,137,6.0,13.0,72,0.00,,,0.00,0.000000,,2013-01-30 11:11:00,
2013-01-30 06:22:00,73.0,63.0,-100.00,SE,137,6.0,13.0,72,0.00,,,0.00,0.000000,,2013-01-30 11:22:00,
2013-01-30 06:33:00,73.0,63.0,-100.00,SE,137,6.0,13.0,72,0.00,,,0.00,0.000000,,2013-01-30 11:33:00,
2013-01-30 07:02:00,73.0,64.0,-100.00,SSE,152,5.0,14.0,73,0.00,,,0.00,0.000000,,2013-01-30 12:02:00,
2013-01-30 07:12:00,73.0,64.0,-100.00,SSE,152,5.0,14.0,73,0.00,,,0.00,0.000000,,2013-01-30 12:12:00,
2013-01-30 07:22:00,73.0,64.0,-100.00,SSE,152,5.0,14.0,73,0.00,,,0.00,0.000000,,2013-01-30 12:22:00,
2013-01-30 07:33:00,73.0,64.0,-100.00,SSE,152,5.0,14.0,73,0.00,,,0.00,0.000000,,2013-01-30 12:33:00,
2013-01-30 08:03:00,73.0,65.0,-100.00,SSE,151,5.0,11.0,76,0.00,,,0.00,7.000000,,2013-01-30 13:03:00,
2013-01-30 08:12:00,73.0,65.0,-100.00,SSE,151,5.0,11.0,76,0.00,,,0.00,7.000000,,2013-01-30 13:12:00,
2013-01-30 08:23:00,73.0,65.0,-100.00,SSE,151,5.0,11.0,76,0.00,,,0.00,7.000000,,2013-01-30 13:23:00,
2013-01-30 08:33:00,73.0,65.0,-100.00,SSE,151,5.0,11.0,76,0.00,,,0.00,7.000000,,2013-01-30 13:33:00,
2013-01-30 09:03:00,77.0,66.0,-100.00,SE,145,8.0,17.0,68,0.00,,,0.00,131.000000,,2013-01-30 14:03:00,
2013-01-30 09:12:00,77.0,66.0,-100.00,SE,145,8.0,17.0,68,0.00,,,0.00,131.000000,,2013-01-30 14:12:00,
2013-01-30 09:23:00,77.0,66.0,-100.00,SE,145,8.0,17.0,68,0.00,,,0.00,131.000000,,2013-01-30 14:23:00,
2013-01-30 09:33:00,77.0,66.0,-100.00,SE,145,8.0,17.0,68,0.00,,,0.00,131.000000,,2013-01-30 14:33:00,
2013-01-30 10:03:00,79.0,65.0,-100.00,SSE,152,9.0,16.0,63,0.00,,,0.00,318.000000,,2013-01-30 15:03:00,
2013-01-30 10:12:00,79.0,65.0,-100.00,SSE,152,9.0,16.0,63,0.00,,,0.00,318.000000,,2013-01-30 15:12:00,
2013-01-30 10:23:00,79.0,65.0,-100.00,SSE,152,9.0,16.0,63,0.00,,,0.00,318.000000,,2013-01-30 15:23:00,
2013-01-30 10:33:00,79.0,65.0,-100.00,SSE,152,9.0,16.0,63,0.00,,,0.00,318.000000,,2013-01-30 15:33:00,
2013-01-30 11:03:00,80.0,65.0,-100.00,SSE,155,12.0,19.0,60,0.00,,,0.00,505.000000,,2013-01-30 16:03:00,
2013-01-30 11:13:00,80.0,65.0,-100.00,SSE,155,12.0,19.0,60,0.00,,,0.00,505.000000,,2013-01-30 16:13:00,
2013-01-30 11:23:00,80.0,65.0,-100.00,SSE,155,12.0,19.0,60,0.00,,,0.00,505.000000,,2013-01-30 16:23:00,
2013-01-30 11:32:00,80.0,65.0,-100.00,SSE,155,12.0,19.0,60,0.00,,,0.00,505.000000,,2013-01-30 16:32:00,
2013-01-30 11:52:00,81.0,67.0,-100.00,SE,141,10.0,21.0,62,0.00,,,0.00,620.000000,,2013-01-30 16:52:00,
2013-01-30 12:03:00,81.0,67.0,-100.00,SE,141,10.0,21.0,62,0.00,,,0.00,620.000000,,2013-01-30 17:03:00,
2013-01-30 12:13:00,81.0,67.0,-100.00,SE,141,10.0,21.0,62,0.00,,,0.00,620.000000,,2013-01-30 17:13:00,
2013-01-30 12:23:00,81.0,67.0,-100.00,SE,141,10.0,21.0,62,0.00,,,0.00,620.000000,,2013-01-30 17:23:00,
2013-01-30 12:33:00,81.0,67.0,-100.00,SE,141,10.0,21.0,62,0.00,,,0.00,620.000000,,2013-01-30 17:33:00,
2013-01-30 13:03:00,81.0,66.0,-100.00,SE,146,11.0,22.0,61,0.00,,,0.00,680.000000,,2013-01-30 18:03:00,
2013-01-30 13:13:00,81.0,66.0,-100.00,SE,146,11.0,22.0,61,0.00,,,0.00,680.000000,,2013-01-30 18:13:00,
2013-01-30 13:23:00,81.0,66.0,-100.00,SE,146,11.0,22.0,61,0.00,,,0.00,680.000000,,2013-01-30 18:23:00,
2013-01-30 13:33:00,81.0,66.0,-100.00,SE,146,11.0,22.0,61,0.00,,,0.00,680.000000,,2013-01-30 18:33:00,
2013-01-30 14:03:00,80.0,68.0,-100.00,SE,145,10.0,23.0,66,0.00,,,0.00,570.000000,,2013-01-30 19:03:00,
2013-01-30 14:13:00,80.0,68.0,-100.00,SE,145,10.0,23.0,66,0.00,,,0.00,570.000000,,2013-01-30 19:13:00,
2013-01-30 14:22:00,80.0,68.0,-100.00,SE,145,10.0,23.0,66,0.00,,,0.00,570.000000,,2013-01-30 19:22:00,
2013-01-30 14:33:00,80.0,68.0,-100.00,SE,145,10.0,23.0,66,0.00,,,0.00,570.000000,,2013-01-30 19:33:00,
2013-01-30 15:03:00,80.0,68.0,-100.00,SE,140,9.0,22.0,66,0.00,,,0.00,490.000000,,2013-01-30 20:03:00,
2013-01-30 15:12:00,80.0,68.0,-100.00,SE,140,9.0,22.0,66,0.00,,,0.00,490.000000,,2013-01-30 20:12:00,
2013-01-30 15:22:00,80.0,68.0,-100.00,SE,140,9.0,22.0,66,0.00,,,0.00,490.000000,,2013-01-30 20:22:00,
2013-01-30 15:33:00,80.0,68.0,-100.00,SE,140,9.0,22.0,66,0.00,,,0.00,490.000000,,2013-01-30 20:33:00,
2013-01-30 16:04:00,80.0,69.0,-100.00,SSE,159,8.0,18.0,69,0.00,,,0.00,403.000000,,2013-01-30 21:04:00,
2013-01-30 16:12:00,80.0,69.0,-100.00,SSE,159,8.0,18.0,69,0.00,,,0.00,403.000000,,2013-01-30 21:12:00,
2013-01-30 16:23:00,80.0,69.0,-100.00,SSE,159,8.0,18.0,69,0.00,,,0.00,403.000000,,2013-01-30 21:23:00,
2013-01-30 16:32:00,80.0,69.0,-100.00,SSE,159,8.0,18.0,69,0.00,,,0.00,403.000000,,2013-01-30 21:32:00,
2013-01-30 16:53:00,81.0,69.0,-100.00,SSE,154,6.0,14.0,68,0.00,,,0.00,319.000000,,2013-01-30 21:53:00,
2013-01-30 17:03:00,81.0,69.0,-100.00,SSE,154,6.0,14.0,68,0.00,,,0.00,319.000000,,2013-01-30 22:03:00,
2013-01-30 17:12:00,81.0,69.0,-100.00,SSE,154,6.0,14.0,68,0.00,,,0.00,319.000000,,2013-01-30 22:12:00,
2013-01-30 17:22:00,81.0,69.0,-100.00,SSE,154,6.0,14.0,68,0.00,,,0.00,319.000000,,2013-01-30 22:22:00,
2013-01-30 17:32:00,81.0,69.0,-100.00,SSE,154,6.0,14.0,68,0.00,,,0.00,319.000000,,2013-01-30 22:32:00,
2013-01-30 18:03:00,78.0,68.0,-100.00,SSE,164,6.0,12.0,71,0.00,,,0.00,154.000000,,2013-01-30 23:03:00,
2013-01-30 18:12:00,78.0,68.0,-100.00,SSE,164,6.0,12.0,71,0.00,,,0.00,154.000000,,2013-01-30 23:12:00,
2013-01-30 18:22:00,78.0,68.0,-100.00,SSE,164,6.0,12.0,71,0.00,,,0.00,154.000000,,2013-01-30 23:22:00,
2013-01-30 18:33:00,78.0,68.0,-100.00,SSE,164,6.0,12.0,71,0.00,,,0.00,154.000000,,2013-01-30 23:33:00,
2013-01-30 19:02:00,74.0,70.0,-100.00,SE,144,3.0,8.0,86,0.00,,,0.00,17.000000,,2013-01-31 00:02:00,
2013-01-30 19:11:00,74.0,70.0,-100.00,SE,144,3.0,8.0,86,0.00,,,0.00,17.000000,,2013-01-31 00:11:00,
2013-01-30 19:22:00,74.0,70.0,-100.00,SE,144,3.0,8.0,86,0.00,,,0.00,17.000000,,2013-01-31 00:22:00,
2013-01-30 19:32:00,74.0,70.0,-100.00,SE,144,3.0,8.0,86,0.00,,,0.00,17.000000,,2013-01-31 00:32:00,
2013-01-30 19:53:00,72.0,69.0,-100.00,SSE,160,3.0,6.0,89,0.00,,,0.00,0.000000,,2013-01-31 00:53:00,
2013-01-30 20:02:00,72.0,69.0,-100.00,SSE,160,3.0,6.0,89,0.00,,,0.00,0.000000,,2013-01-31 01:02:00,
2013-01-30 20:12:00,72.0,69.0,-100.00,SSE,160,3.0,6.0,89,0.00,,,0.00,0.000000,,2013-01-31 01:12:00,
2013-01-30 20:22:00,72.0,69.0,-100.00,SSE,160,3.0,6.0,89,0.00,,,0.00,0.000000,,2013-01-31 01:22:00,
2013-01-30 20:32:00,72.0,69.0,-100.00,SSE,160,3.0,6.0,89,0.00,,,0.00,0.000000,,2013-01-31 01:32:00,
2013-01-30 21:01:00,71.0,68.0,-100.00,SSE,168,3.0,6.0,90,0.00,,,0.00,0.000000,,2013-01-31 02:01:00,
2013-01-30 21:12:00,71.0,68.0,-100.00,SSE,168,3.0,6.0,90,0.00,,,0.00,0.000000,,2013-01-31 02:12:00,
2013-01-30 21:22:00,71.0,68.0,-100.00,SSE,168,3.0,6.0,90,0.00,,,0.00,0.000000,,2013-01-31 02:22:00,
2013-01-30 21:32:00,71.0,68.0,-100.00,SSE,168,3.0,6.0,90,0.00,,,0.00,0.000000,,2013-01-31 02:32:00,
2013-01-30 22:03:00,69.0,68.0,-100.00,SSE,156,3.0,4.0,95,0.00,,,0.00,0.000000,,2013-01-31 03:03:00,
2013-01-30 22:11:00,69.0,68.0,-100.00,SSE,156,3.0,4.0,95,0.00,,,0.00,0.000000,,2013-01-31 03:11:00,
2013-01-30 22:22:00,69.0,68.0,-100.00,SSE,156,3.0,4.0,95,0.00,,,0.00,0.000000,,2013-01-31 03:22:00,
2013-01-30 22:32:00,69.0,68.0,-100.00,SSE,156,3.0,4.0,95,0.00,,,0.00,0.000000,,2013-01-31 03:32:00,
2013-01-30 23:02:00,70.0,68.0,-100.00,SSE,159,3.0,5.0,94,0.00,,,0.00,0.000000,,2013-01-31 04:02:00,
2013-01-30 23:11:00,70.0,68.0,-100.00,SSE,159,3.0,5.0,94,0.00,,,0.00,0.000000,,2013-01-31 04:11:00,
2013-01-30 23:22:00,70.0,68.0,-100.00,SSE,159,3.0,5.0,94,0.00,,,0.00,0.000000,,2013-01-31 04:22:00,
2013-01-30 23:32:00,70.0,68.0,-100.00,SSE,159,3.0,5.0,94,0.00,,,0.00,0.000000,,2013-01-31 04:32:00,